Regional Weather Roundup
Issued by NWS

Home | Current Version | Previous Version | Text Only | Print | Product List | Glossary On
Versions: 1 2 3 4 5 6 7 8 9 10 11 12 13 14 15 16 17 18 19 20 21 22 23 24 25 26 27 28 29 30 31 32 33 34 35 36 37 38 39 40 41 42 43 44 45 46 47 48 49 50
000
ASUS45 KABQ 290210
RWRNM
NEW MEXICO REGIONAL WEATHER ROUNDUP
NATIONAL WEATHER SERVICE ALBUQUERQUE NM
800 PM MDT THU MAY 28 2015

NOTE: "FAIR" MEANS FEW OR NO CLOUDS BELOW 12,000 FEET AGL WITH NO
       SIGNIFICANT WEATHER OR OBSTRUCTIONS TO VISION.

      THIS PRODUCT IS RELEASED AS TWO VERSIONS.  ONE VERSION NEAR
      THE TOP OF THE HOUR CONTAINING PRELIMINARY DATA FROM ALBUQUERQUE
      AND OTHER STATIONS.  A FINAL VERSION WITH ADDITIONAL DATA IS
      ISSUED ABOUT 10 MINUTES AFTER THE HOUR.

NMZ501-503-504-510>518-290300-
NORTHWEST PLATEAU/NORTHCENTRAL MOUNTAINS

CITY           SKY/WX    TMP DP  RH WIND       PRES   REMARKS
FARMINGTON     CLEAR     72  29  20 NW14G28   30.05R
LOS ALAMOS     CLEAR     68  24  18 W10G23    30.13R
SANTA FE       CLEAR     72  18  13 NW13      30.04R
TAOS           CLEAR     66  23  19 NW13      30.12R
ANGEL FIRE     FAIR      59  26  27 CALM      30.20R

$$
NMZ402-403-502-505>509-290300-
WESTCENTRAL MOUNTAINS/SOUTHWEST MOUNTAINS

CITY           SKY/WX    TMP DP  RH WIND       PRES   REMARKS
GALLUP         PTCLDY    72  23  16 W13       30.12R
GRANTS         CLEAR     72  13  10 W10       30.12S
SILVER CITY      N/A     79  14   8 W17G25    30.06R

$$
NMZ407-409-411-412-290300-
SOUTHERN DESERTS

CITY           SKY/WX    TMP DP  RH WIND       PRES   REMARKS
LORDSBURG      FAIR      84  18   8 W9        29.97R
DEMING         CLEAR     84  15   7 W12       29.95R
LAS CRUCES     CLEAR     84  16   8 W13       29.95R
HOLLOMAN AFB   CLEAR     85  19   8 SW8       29.88R
ALAMOGORDO     CLEAR     84  19   9 SW6       29.91R
T OR C         CLEAR     86  14   7 W13G21    29.92R

$$
NMZ519>523-290300-
CENTRAL VALLEYS/CENTRAL HIGHLANDS

CITY           SKY/WX    TMP DP  RH WIND       PRES   REMARKS
ALBUQUERQUE    PTCLDY    81  13   7 W14       29.98R
DOUBLE EAGLE   PTCLDY    73  27  17 W8        30.03R
MORIARTY ARPT  FAIR      73  14  11 W8        30.04R
CLINES CORNERS CLEAR     68  18  14 W13       30.08R
BELEN          FAIR      80  11   7 W13G23    29.97S
SOCORRO        FAIR      82  13   7 NW17G29   29.93S

$$
NMZ524>526-539-540-290300-
SOUTHCENTRAL MOUNTAINS

CITY           SKY/WX    TMP DP  RH WIND       PRES   REMARKS
RUIDOSO        CLEAR     70  16  12 NW6       30.11R

$$
NMZ527>531-290300-
NORTHEAST HIGHLANDS/NORTHEAST PLAINS

CITY           SKY/WX    TMP DP  RH WIND       PRES   REMARKS
LAS VEGAS      CLEAR     68  20  16 W13G24    30.08R
RATON          MOCLDY    64  43  46 E15       30.05R
CLAYTON        TSTM      55  49  80 NE16      30.02R

$$
NMZ532>537-290300-
EASTCENTRAL PLAINS

CITY           SKY/WX    TMP DP  RH WIND       PRES   REMARKS
TUCUMCARI      MOCLDY    70  57  63 S14       29.89S
CANNON AFB     NOT AVBL
CLOVIS AIRPORT CLOUDY    57  54  88 SW9       29.95

$$
NMZ028-029-538-290300-
SOUTHEAST PLAINS

CITY           SKY/WX    TMP DP  RH WIND       PRES   REMARKS
ROSWELL        CLOUDY    73  58  59 E24G33    29.89R
ARTESIA        PTCLDY    77  55  47 E21G26    29.91R
CARLSBAD       PTCLDY    77  52  41 SE13      29.89R
HOBBS          CLOUDY    63  57  82 E18G26    29.97R


$$



USA.gov is the U.S. government's official web portal to all federal, state and local government web resources and services.